GW3564 Weather Reports


time (UTC)temp
C
wind
direction
speed
KPH
gust
KPH
rain 1hr
cm
rain 24hr
cm
rain mn
cm
humidity
%
barometer
mb
20260502170254 11 180 3.2 3.2 0.00 0.00 0.00 49 1015.2
20260502164242 12 342 4.8 4.8 0.00 0.00 0.00 50 1015.2
20260502163737 11 243 4.8 4.8 0.00 0.00 0.00 47 1015.4
20260502163234 11 262 6.4 8.0 0.00 0.00 0.00 49 1015.3
20260502162731 11 240 6.4 9.7 0.00 0.00 0.00 48 1015.2
20260502162228 11 228 4.8 8.0 0.00 0.00 0.00 50 1015.3
20260502161725 11 289 6.4 8.0 0.00 0.00 0.00 48 1015.4
20260502161222 12 282 6.4 8.0 0.00 0.00 0.00 48 1015.6
20260502160720 12 264 4.8 4.8 0.00 0.00 0.00 49 1015.7
20260502160219 12 300 4.8 4.8 0.00 0.00 0.00 49 1015.7
20260502152143 10 247 3.2 3.2 0.00 0.00 0.00 53 1015.7
20260502151640 10 165 0.0 1.6 0.00 0.00 0.00 53 1015.8
20260502151137 10 263 3.2 3.2 0.00 0.00 0.00 52 1015.9
20260502150635 9 209 3.2 3.2 0.00 0.00 0.00 57 1015.9
20260502150131 9 211 0.0 1.6 0.00 0.00 0.00 52 1015.9
20260502130519 7 196 0.0 0.0 0.00 0.00 0.00 66 1016.0
20260502123502 6 184 0.0 0.0 0.00 0.00 0.00 69 1015.7
20260502122959 6 186 0.0 0.0 0.00 0.00 0.00 71 1015.9
20260502122455 6 221 3.2 3.2 0.00 0.00 0.00 69 1015.6
20260502121953 6 187 0.0 1.6 0.00 0.00 0.00 70 1015.7
20260502121450 6 202 1.6 1.6 0.00 0.00 0.00 70 1015.8
20260502120948 6 185 0.0 1.6 0.00 0.00 0.00 71 1016.0
20260502120444 6 182 0.0 0.0 0.00 0.00 0.00 73 1015.8
20260502115438 6 195 0.0 0.0 0.00 0.00 0.00 71 1016.0
20260502114934 6 185 0.0 0.0 0.00 0.00 0.00 75 1016.0
20260502114431 6 190 1.6 1.6 0.00 0.00 0.00 73 1015.7
20260502113928 6 189 0.0 1.6 0.00 0.00 0.00 71 1015.8
20260502113426 6 211 0.0 1.6 0.00 0.00 0.00 74 1015.7
20260502112925 5 206 1.6 1.6 0.00 0.00 0.00 72 1015.6
20260502112421 5 181 0.0 0.0 0.00 0.00 0.00 76 1015.6
20260502111919 5 177 0.0 0.0 0.00 0.00 0.00 79 1015.6
20260502111416 5 186 0.0 0.0 0.00 0.00 0.00 75 1015.4
20260502110914 5 188 0.0 0.0 0.00 0.00 0.00 77 1015.4
20260502110412 5 187 0.0 0.0 0.00 0.00 0.00 78 1015.5
20260502105908 5 186 0.0 0.0 0.00 0.00 0.00 79 1015.4
20260502105405 5 184 0.0 0.0 0.00 0.00 0.00 75 1015.3
20260502104903 5 182 0.0 0.0 0.00 0.00 0.00 77 1015.5
20260502104400 5 186 0.0 0.0 0.00 0.00 0.00 77 1015.3
20260502103857 5 176 0.0 0.0 0.00 0.00 0.00 74 1015.3
20260502103355 5 183 0.0 0.0 0.00 0.00 0.00 72 1015.3
20260502102852 5 187 0.0 0.0 0.00 0.00 0.00 71 1015.5
20260502102348 5 195 0.0 0.0 0.00 0.00 0.00 73 1015.6
20260502101846 6 183 0.0 0.0 0.00 0.00 0.00 74 1015.7
20260502101344 6 312 0.0 0.0 0.00 0.00 0.00 69 1015.5
20260502100842 6 204 1.6 1.6 0.00 0.00 0.00 66 1015.6
20260502100341 6 183 0.0 1.6 0.00 0.00 0.00 68 1015.5
20260502091314 6 278 4.8 4.8 0.00 0.00 0.00 66 1015.6
20260502090812 6 248 3.2 3.2 0.00 0.00 0.00 67 1015.7
20260502090309 6 266 4.8 4.8 0.00 0.00 0.00 69 1015.6
20260502071204 8 202 1.6 1.6 0.00 0.00 0.00 77 1015.3
20260502070702 8 188 1.6 1.6 0.00 0.00 0.00 78 1015.1
20260502070200 8 185 1.6 1.6 0.00 0.00 0.00 77 1015.2
20260502065658 8 186 0.0 0.0 0.00 0.00 0.00 78 1015.2
20260502065155 8 191 0.0 0.0 0.00 0.00 0.00 79 1015.5
20260502064654 8 181 0.0 0.0 0.00 0.00 0.00 78 1015.5
20260502064150 8 198 0.0 1.6 0.00 0.00 0.00 77 1015.5
20260502063648 8 194 1.6 1.6 0.00 0.00 0.00 78 1015.5
20260502063146 8 190 0.0 0.0 0.00 0.00 0.00 79 1015.8
20260502062643 8 183 0.0 1.6 0.00 0.00 0.00 79 1015.5
20260502062140 8 185 0.0 0.0 0.00 0.00 0.00 77 1015.7
20260502061639 8 198 0.0 1.6 0.00 0.00 0.00 75 1015.8
20260502061137 8 203 1.6 1.6 0.00 0.00 0.00 75 1015.7
20260502060636 8 198 0.0 1.6 0.00 0.00 0.00 75 1015.6
20260502060133 8 188 3.2 3.2 0.00 0.00 0.00 76 1015.7
20260502055631 8 199 1.6 1.6 0.00 0.00 0.00 81 1015.4
20260502055128 8 181 0.0 0.0 0.00 0.00 0.00 80 1015.5
20260502054627 8 228 3.2 3.2 0.00 0.00 0.00 78 1015.6
20260502054124 8 187 0.0 0.0 0.00 0.00 0.00 81 1015.5
20260502053621 8 198 1.6 1.6 0.00 0.00 0.00 78 1015.6
20260502053118 8 185 0.0 1.6 0.00 0.00 0.00 83 1015.4
20260502052617 8 192 0.0 0.0 0.00 0.00 0.00 82 1015.6
20260502052115 8 185 0.0 0.0 0.00 0.00 0.00 82 1015.8
20260502051613 8 184 0.0 0.0 0.00 0.00 0.00 82 1015.8
20260502051110 8 184 0.0 0.0 0.00 0.00 0.00 79 1015.5
20260502050606 8 187 0.0 0.0 0.00 0.00 0.00 80 1015.6
20260502045559 8 183 0.0 0.0 0.00 0.00 0.00 79 1015.6
20260502045057 8 184 0.0 0.0 0.00 0.00 0.00 79 1015.5
20260502044553 8 184 0.0 0.0 0.00 0.00 0.00 79 1015.4
20260502044050 9 184 0.0 0.0 0.00 0.00 0.00 76 1015.5
20260502043548 9 186 0.0 0.0 0.00 0.00 0.00 75 1015.7
20260502043044 9 199 1.6 1.6 0.00 0.00 0.00 76 1015.6
20260502042544 9 183 0.0 0.0 0.00 0.00 0.00 76 1015.8
20260502042042 9 176 0.0 0.0 0.00 0.00 0.00 75 1015.4
20260502041540 10 172 0.0 0.0 0.00 0.00 0.00 76 1015.6
20260502041037 10 181 0.0 0.0 0.00 0.00 0.00 76 1015.6
20260502040533 10 201 0.0 1.6 0.00 0.00 0.00 74 1015.5
20260502040031 10 199 1.6 1.6 0.00 0.00 0.00 75 1015.7
20260502035526 10 182 0.0 0.0 0.00 0.00 0.00 74 1015.5
20260502035024 10 183 1.6 1.6 0.00 0.00 0.00 72 1015.5
20260502034522 10 200 1.6 1.6 0.00 0.00 0.00 73 1015.6
20260502034020 10 260 3.2 3.2 0.00 0.00 0.00 73 1015.2
20260502033518 10 195 0.0 1.6 0.00 0.00 0.00 73 1015.3
20260502033015 10 186 0.0 0.0 0.00 0.00 0.00 72 1015.4
20260502032511 11 223 1.6 3.2 0.00 0.00 0.00 72 1015.5
20260502032008 11 203 1.6 1.6 0.00 0.00 0.00 72 1015.3
20260502031506 11 201 1.6 1.6 0.00 0.00 0.00 72 1015.3
20260502031004 11 233 3.2 3.2 0.00 0.00 0.00 72 1015.2
20260502030502 11 184 3.2 4.8 0.00 0.00 0.00 72 1015.3
20260502030000 11 186 0.0 0.0 0.00 0.00 0.00 72 1015.3
20260502025456 11 240 3.2 3.2 0.00 0.00 0.00 72 1015.1
20260502024954 11 185 1.6 1.6 0.00 0.00 0.00 73 1015.1
20260502024452 11 181 1.6 1.6 0.00 0.00 0.00 72 1015.2
20260502023950 11 229 1.6 1.6 0.00 0.00 0.00 71 1015.2
20260502023447 11 260 3.2 3.2 0.00 0.00 0.00 70 1015.0
20260502022944 11 191 1.6 1.6 0.00 0.00 0.00 70 1015.1
20260502022440 11 282 4.8 4.8 0.00 0.00 0.00 69 1015.0
20260502021938 11 301 4.8 4.8 0.00 0.00 0.00 68 1014.5
20260502021435 11 277 4.8 4.8 0.00 0.00 0.00 68 1014.4
20260502020932 12 167 3.2 3.2 0.00 0.00 0.00 68 1014.5
20260502020430 12 255 8.0 12.9 0.00 0.00 0.00 66 1014.4
20260502015926 12 242 4.8 4.8 0.00 0.00 0.00 65 1014.0
20260502015425 12 276 8.0 12.9 0.00 0.00 0.00 64 1013.8
20260502014921 12 208 4.8 4.8 0.00 0.00 0.00 63 1013.6
20260502014418 13 287 8.0 9.7 0.00 0.00 0.00 61 1013.7
20260502013914 13 204 1.6 1.6 0.00 0.00 0.00 59 1013.5
20260502013410 13 285 3.2 3.2 0.00 0.00 0.00 57 1013.7
20260502012907 13 269 3.2 3.2 0.00 0.00 0.00 57 1013.4
20260502012405 12 236 1.6 1.6 0.00 0.00 0.00 67 1013.5
20260502011902 12 190 0.0 0.0 0.00 0.00 0.00 71 1013.3
20260502011358 12 176 0.0 1.6 0.00 0.00 0.00 69 1012.9
20260502010855 12 126 1.6 3.2 0.00 0.00 0.00 68 1013.0
20260502010351 13 184 0.0 0.0 0.00 0.00 0.00 67 1012.7
20260502005848 13 199 0.0 1.6 0.00 0.00 0.00 68 1012.6
20260502005346 13 198 1.6 1.6 0.00 0.00 0.00 64 1012.4
20260502004843 13 179 0.0 0.0 0.00 0.00 0.00 64 1012.5
20260502004339 13 195 0.0 1.6 0.00 0.00 0.00 64 1012.4
20260502003837 13 195 0.0 1.6 0.00 0.00 0.00 65 1011.9
20260502003334 13 185 0.0 0.0 0.00 0.00 0.00 66 1012.2
20260502002830 13 187 0.0 0.0 0.00 0.00 0.00 64 1012.1
20260502002328 13 184 0.0 0.0 0.00 0.00 0.00 63 1012.1
20260502001825 14 186 0.0 1.6 0.00 0.00 0.00 62 1012.0
20260502001323 14 186 0.0 0.0 0.00 0.00 0.00 61 1012.0
20260502000820 15 188 0.0 0.0 0.00 0.00 0.00 63 1012.0
20260502000318 15 175 0.0 0.0 0.00 0.00 0.00 61 1011.9
20260501235814 15 179 0.0 1.6 0.00 0.00 0.00 60 1011.8
20260501235310 15 213 1.6 1.6 0.00 0.00 0.00 62 1011.9
20260501234805 15 172 0.0 0.0 0.00 0.00 0.00 58 1011.6
20260501234303 15 183 0.0 0.0 0.00 0.00 0.00 56 1011.5
20260501233801 16 191 0.0 1.6 0.00 0.00 0.00 52 1011.6
20260501233258 16 185 0.0 1.6 0.00 0.00 0.00 54 1011.3
20260501232753 16 189 3.2 4.8 0.00 0.00 0.00 44 1011.5
20260501232251 17 184 0.0 0.0 0.00 0.00 0.00 48 1011.1
20260501231748 17 173 0.0 0.0 0.00 0.00 0.00 51 1011.3
20260501231246 17 178 0.0 0.0 0.00 0.00 0.00 54 1011.1
20260501230744 17 181 0.0 0.0 0.00 0.00 0.00 51 1011.3
20260501230243 17 183 0.0 0.0 0.00 0.00 0.00 51 1011.3
20260501225740 17 215 0.0 0.0 0.00 0.00 0.00 50 1011.2
20260501225237 17 191 0.0 0.0 0.00 0.00 0.00 52 1011.2
20260501224733 17 195 0.0 1.6 0.00 0.00 0.00 51 1011.3
20260501224231 17 189 3.2 3.2 0.00 0.00 0.00 50 1011.1
20260501223727 17 167 0.0 0.0 0.00 0.00 0.00 51 1011.2
20260501223223 17 176 0.0 0.0 0.00 0.00 0.00 50 1011.1
20260501222719 18 112 4.8 4.8 0.00 0.00 0.00 48 1011.0
20260501222217 19 239 1.6 1.6 0.00 0.00 0.00 48 1011.2
20260501221713 19 259 4.8 4.8 0.00 0.00 0.00 46 1011.2
20260501221211 18 239 1.6 3.2 0.00 0.00 0.00 49 1011.2
20260501220708 18 194 1.6 3.2 0.00 0.00 0.00 48 1011.2
20260501220205 18 193 1.6 1.6 0.00 0.00 0.00 50 1011.1
20260501215702 18 202 1.6 1.6 0.00 0.00 0.00 50 1011.2
20260501215157 17 201 0.0 0.0 0.00 0.00 0.00 50 1011.2
20260501214652 17 212 1.6 1.6 0.00 0.00 0.00 51 1011.2
20260501214148 17 195 0.0 0.0 0.00 0.00 0.00 51 1011.2
20260501213645 17 190 1.6 1.6 0.00 0.00 0.00 48 1011.3
20260501213141 17 187 0.0 0.0 0.00 0.00 0.00 49 1011.5
20260501212638 17 180 0.0 0.0 0.00 0.00 0.00 49 1011.3
20260501212135 18 190 1.6 1.6 0.00 0.00 0.00 48 1011.5
20260501211632 18 201 1.6 1.6 0.00 0.00 0.00 47 1011.6
20260501211130 18 208 0.0 1.6 0.00 0.00 0.00 47 1011.5
20260501210626 19 198 1.6 3.2 0.00 0.00 0.00 45 1011.5
20260501210122 20 274 6.4 11.3 0.00 0.00 0.00 43 1011.7
20260501205619 19 315 3.2 4.8 0.00 0.00 0.00 44 1011.9
20260501205117 20 150 1.6 3.2 0.00 0.00 0.00 45 1011.5
20260501204613 20 165 3.2 3.2 0.00 0.00 0.00 43 1011.3
20260501204109 18 185 1.6 1.6 0.00 0.00 0.00 42 1011.9
20260501203606 19 190 8.0 12.9 0.00 0.00 0.00 46 1011.5
20260501203103 18 257 3.2 3.2 0.00 0.00 0.00 45 1011.6
20260501202600 19 157 1.6 3.2 0.00 0.00 0.00 44 1011.7
20260501202057 19 162 1.6 1.6 0.00 0.00 0.00 44 1011.7
20260501201554 19 167 1.6 1.6 0.00 0.00 0.00 46 1012.2
20260501201050 19 226 3.2 3.2 0.00 0.00 0.00 42 1011.9
20260501200547 19 231 3.2 3.2 0.00 0.00 0.00 43 1012.1
20260501200045 19 198 3.2 4.8 0.00 0.00 0.00 45 1011.9
20260501195542 19 216 1.6 3.2 0.00 0.00 0.00 46 1012.2
20260501195037 19 190 0.0 0.0 0.00 0.00 0.00 45 1012.3
20260501194533 18 256 4.8 4.8 0.00 0.00 0.00 42 1012.2
20260501194029 19 195 3.2 3.2 0.00 0.00 0.00 43 1012.2
20260501193527 18 219 1.6 1.6 0.00 0.00 0.00 46 1012.7
20260501193025 18 150 3.2 3.2 0.00 0.00 0.00 46 1012.7
20260501192521 18 172 3.2 3.2 0.00 0.00 0.00 45 1012.7
20260501192020 18 222 3.2 4.8 0.00 0.00 0.00 43 1013.0
20260501191516 18 199 0.0 1.6 0.00 0.00 0.00 45 1012.9
20260501191014 18 214 3.2 3.2 0.00 0.00 0.00 44 1012.9
20260501190509 18 192 1.6 1.6 0.00 0.00 0.00 43 1013.2
20260501190005 18 130 1.6 1.6 0.00 0.00 0.00 44 1013.4
20260501185501 18 236 3.2 4.8 0.00 0.00 0.00 40 1013.0
20260501184957 18 176 1.6 3.2 0.00 0.00 0.00 43 1013.5
20260501184453 18 270 3.2 3.2 0.00 0.00 0.00 42 1013.3
20260501183948 18 257 4.8 4.8 0.00 0.00 0.00 45 1013.6
20260501183445 18 194 1.6 3.2 0.00 0.00 0.00 39 1013.7
20260501182942 18 231 3.2 3.2 0.00 0.00 0.00 39 1013.7
20260501182439 18 237 4.8 4.8 0.00 0.00 0.00 39 1013.9
20260501181935 18 205 1.6 3.2 0.00 0.00 0.00 39 1013.9
20260501181427 18 181 1.6 1.6 0.00 0.00 0.00 39 1013.6
20260501180924 18 189 3.2 3.2 0.00 0.00 0.00 38 1013.8
20260501180421 18 220 1.6 1.6 0.00 0.00 0.00 40 1014.2
20260501175917 18 175 3.2 3.2 0.00 0.00 0.00 42 1013.9
20260501175414 18 214 4.8 8.0 0.00 0.00 0.00 39 1014.0
20260501174911 17 198 4.8 4.8 0.00 0.00 0.00 43 1014.0
20260501174409 17 281 6.4 8.0 0.00 0.00 0.00 42 1014.1
20260501173906 17 268 3.2 8.0 0.00 0.00 0.00 46 1014.3
20260501173404 17 135 3.2 3.2 0.00 0.00 0.00 41 1014.2
20260501172859 17 146 1.6 1.6 0.00 0.00 0.00 41 1014.3
20260501172354 18 343 4.8 4.8 0.00 0.00 0.00 41 1014.4
20260501171850 17 212 1.6 1.6 0.00 0.00 0.00 44 1014.4